This demonstration page uses our WeatherBlox Daily Observations layout. Learn more.

Left ArrowRight Arrow

Hourly Observations for May 2, 2016

Temp ( °F °C ) Dew Point ( °F °C ) Humidity (%) Winds ( mph kmh ) Pressure ( in mb ) Visibility ( mi km ) Precip ( " mm )
12:52 am 00:52 Cloudy 53 11.7 47 8.3 80 80 N 7 11 30.08 1019 10 16 0.00 0.03
1:52 am 01:52 Cloudy with Light Rain 52 11.1 47 8.3 83 83 N 10 17 30.06 1018 10 16 0.00 0.03
2:52 am 02:52 Cloudy 52 11.1 47 8.3 83 83 NNE 8 13 30.06 1018 10 16 0.00 0.03
3:52 am 03:52 Mostly Cloudy 51 10.6 46 7.8 83 83 N 8 13 30.04 1017 10 16 0.00 0.00
4:05 am 04:05 Cloudy 51 10.6 46 7.8 83 83 NE 5 7 30.09 1019 10 16 0.00 0.00
4:52 am 04:52 Cloudy 51 10.6 46 7.8 83 83 NNE 3 6 30.06 1018 10 16 0.00 0.00
5:52 am 05:52 Cloudy 51 10.6 46 7.8 83 83 N 7 11 30.05 1018 10 16 0.00 0.00
6:41 am 06:41 Cloudy 50 10 46 7.8 86 86 N 7 11 30.09 1019 10 16 0.00 0.00
6:52 am 06:52 Cloudy 51 10.6 46 7.8 83 83 N 8 13 30.06 1018 10 16 0.00 0.00
7:01 am 07:01 Cloudy 51 10.6 46 7.8 83 83 N 7 11 30.09 1019 10 16 0.00 0.00
7:11 am 07:11 Cloudy 50 10 46 8 88 88 N 9 15 30.09 1019 10 16 0.00 0.00
7:52 am 07:52 Cloudy 51 10.6 46 7.8 83 83 N 8 13 30.06 1018 10 16 0.00 0.00
8:03 am 08:03 Cloudy 52 11 45 7 77 77 N 12 19 30.06 1018 10 16 0.00 0.00
8:36 am 08:36 Cloudy 52 11 45 7 77 77 N 8 13 30.12 1020 10 16 0.00 0.00
8:43 am 08:43 Cloudy 52 11.1 44 6.7 75 75 N 7 11 30.09 1019 10 16 0.00 0.00
8:52 am 08:52 Cloudy 52 11.1 44 6.7 75 75 N 5 7 30.08 1019 10 16 0.00 0.00
9:52 am 09:52 Cloudy 54 12.2 44 6.7 69 69 VRB 5 7 30.09 1019 10 16 0.00 0.00
10:08 am 10:08 Cloudy 54 12 45 7 72 72 VRB 3 6 30.09 1019 10 16 0.00 0.00
10:52 am 10:52 Cloudy 54 12.2 44 6.7 69 69 NNW 8 13 30.08 1019 10 16 0.00 0.00
11:52 am 11:52 Cloudy 55 12.8 45 7.2 69 69 NNW 7 11 30.09 1019 10 16 0.00 0.00
12:52 pm 12:52 Cloudy 54 12.2 45 7.2 72 72 NW 5 7 30.08 1019 10 16 0.00 0.00
1:52 pm 13:52 Cloudy 54 12.2 45 7.2 72 72 NW 9 15 30.08 1019 10 16 0.00 0.00
2:52 pm 14:52 Cloudy 53 11.7 44 6.7 72 72 WNW 7 11 30.08 1019 10 16 0.00 0.00
3:52 pm 15:52 Cloudy 52 11.1 44 6.7 75 75 NW 8 13 30.07 1018 10 16 0.00 0.00
4:52 pm 16:52 Cloudy 53 11.7 44 6.7 72 72 NNW 10 17 30.05 1018 10 16 0.00 0.00
5:52 pm 17:52 Cloudy 53 11.7 44 6.7 72 72 NNW 6 9 30.05 1018 10 16 0.00 0.00
6:01 pm 18:01 Cloudy 53 11.7 44 6.7 72 72 NW 6 9 30.06 1018 10 16 0.00 0.00
6:52 pm 18:52 Cloudy 53 11.7 45 7.2 74 74 NW 6 9 30.04 1017 10 16 0.00 0.00
7:52 pm 19:52 Cloudy 52 11.1 45 7.2 77 77 NW 5 7 30.04 1017 10 16 0.00 0.00
8:42 pm 20:42 Cloudy 52 11 45 7 77 77 N 6 9 30.06 1018 10 16 0.00 0.00
8:52 pm 20:52 Cloudy 52 11.1 45 7.2 77 77 N 6 9 30.05 1018 10 16 0.00 0.00
9:09 pm 21:09 Cloudy 52 11.1 45 7.2 77 77 NNW 6 9 30.06 1018 10 16 0.00 0.00
9:33 pm 21:33 Cloudy 51 10.6 46 7.8 83 83 N 6 9 30.09 1019 10 16 0.00 0.00
9:52 pm 21:52 Cloudy 51 10.6 46 7.8 83 83 N 5 7 30.06 1018 10 16 0.00 0.00
10:52 pm 22:52 Cloudy 51 10.6 45 7.2 80 80 Calm 30.06 1018 10 16 0.00 0.00
11:52 pm 23:52 Clear 48 8.9 45 7.2 89 89 W 5 7 30.05 1018 10 16 0.00 0.00

Powered by AerisWeather